カタログに戻る

NIMBUS 2 DEB

運用中LEO
NORAD 28617·DEBRIS·🇺🇸 United States

打ち上げ May 15, 1966 から Vandenberg Space Force Base

Loading…

次のパス (今後24時間)

TLE

最新Source: Space-Track

元期: Sep 13, 2026, 23:28 UTC

1 28617U 66040AG  26256.97823988  .00002572  00000-0  24267-2 0  9994
2 28617 100.4800 146.0912 0042389 183.5149 190.2808 13.81979803207319

AllMySatでNIMBUS 2 DEBをリアルタイム追跡

Download on the App Store